Location: Lawrence
(38.9720°N, 95.2350°W)
Time: 22:57:45
(UTC-05:00)

JAS-1B - Visible Passes

Search period start: 27 May 2016 00:00
Search period end: 06 June 2016 00:00
Orbit: 911 x 1744 km, 99.0° (Epoch: 27 May)

Date Brightness Start Highest point End Pass type
(mag) Time Alt. Az. Time Alt. Az. Time Alt. Az.
27 May 8.5 21:17:20 10° N 21:23:41 44° WNW 21:29:14 10° SW visible
28 May 9.1 21:36:42 10° N 21:42:27 31° WNW 21:47:36 10° WSW visible
29 May 9.7 21:56:16 10° NNW 22:01:10 22° WNW 22:05:39 10° WSW visible
30 May 11.1 05:03:45 10° ENE 05:05:06 10° NE 05:06:25 10° NE visible
30 May 9.9 22:16:07 10° NNW 22:19:48 16° NW 22:23:16 10° W visible
31 May 11.0 05:19:19 10° E 05:23:41 14° NE 05:27:47 10° NNE visible
31 May 10.3 22:36:57 10° NW 22:38:23 11° NW 22:39:47 10° WNW visible
01 Jun 8.0 21:01:50 10° N 21:08:03 54° WNW 21:13:37 10° SW visible
02 Jun 8.7 21:21:08 10° N 21:26:53 37° WNW 21:32:07 10° SW visible
03 Jun 9.4 21:40:34 10° N 21:45:39 26° WNW 21:50:21 10° WSW visible
04 Jun 9.7 22:00:15 10° NNW 22:04:21 19° WNW 22:08:13 10° W visible
05 Jun 11.1 05:06:39 10° ENE 05:08:37 11° NE 05:10:31 10° NE visible
05 Jun 10.0 22:20:26 10° NNW 22:22:59 13° NW 22:25:27 10° W visible
